Time,TemperatureF,DewpointF,PressureIn,WindDirection,WindDirectionDegrees,WindSpeedMPH,WindSpeedGustMPH,Humidity,HourlyPrecipIn,Conditions,Clouds,dailyrainin,SoftwareType,DateUTC
2013-04-26 00:02:00,40.0,34.0,30.30,SE,135,2.0,4.0,78,0.00,,,0.00,,2013-04-26 05:02:00,
2013-04-26 00:12:00,40.0,34.0,30.30,SE,135,2.0,4.0,78,0.00,,,0.00,,2013-04-26 05:12:00,
2013-04-26 00:22:00,40.0,34.0,30.30,SE,135,2.0,3.0,79,0.00,,,0.00,,2013-04-26 05:22:00,
2013-04-26 00:32:00,39.0,33.0,30.31,SE,134,1.0,3.0,79,0.00,,,0.00,,2013-04-26 05:32:00,
2013-04-26 00:42:00,39.0,33.0,30.31,SE,134,1.0,3.0,79,0.00,,,0.00,,2013-04-26 05:42:00,
2013-04-26 00:52:00,39.0,33.0,30.31,SE,134,1.0,2.0,80,0.00,,,0.00,,2013-04-26 05:52:00,
2013-04-26 01:02:00,39.0,34.0,30.32,SE,134,2.0,3.0,82,0.00,,,0.00,,2013-04-26 06:02:00,
2013-04-26 01:11:00,39.0,34.0,30.32,SE,134,2.0,3.0,82,0.00,,,0.00,,2013-04-26 06:11:00,
2013-04-26 01:21:00,39.0,34.0,30.32,SE,134,2.0,3.0,81,0.00,,,0.00,,2013-04-26 06:21:00,
2013-04-26 01:32:00,39.0,34.0,30.32,SE,134,2.0,3.0,81,0.00,,,0.00,,2013-04-26 06:32:00,
2013-04-26 01:42:00,39.0,34.0,30.32,SE,134,2.0,3.0,81,0.00,,,0.00,,2013-04-26 06:42:00,
2013-04-26 01:52:00,39.0,34.0,30.32,SE,134,1.0,3.0,83,0.00,,,0.00,,2013-04-26 06:52:00,
2013-04-26 02:01:00,38.0,33.0,30.32,SE,134,1.0,3.0,83,0.00,,,0.00,,2013-04-26 07:01:00,
2013-04-26 02:11:00,38.0,33.0,30.32,SE,134,1.0,3.0,83,0.00,,,0.00,,2013-04-26 07:11:00,
2013-04-26 02:22:00,38.0,33.0,30.32,SE,134,2.0,5.0,83,0.00,,,0.00,,2013-04-26 07:22:00,
2013-04-26 02:31:00,38.0,34.0,30.31,SE,134,2.0,3.0,84,0.00,,,0.00,,2013-04-26 07:31:00,
2013-04-26 02:42:00,38.0,34.0,30.31,SE,134,2.0,3.0,84,0.00,,,0.00,,2013-04-26 07:42:00,
2013-04-26 02:52:00,38.0,34.0,30.31,SE,136,3.0,5.0,84,0.00,,,0.00,,2013-04-26 07:52:00,
2013-04-26 03:02:00,38.0,34.0,30.31,SE,138,3.0,5.0,84,0.00,,,0.00,,2013-04-26 08:02:00,
2013-04-26 03:11:00,38.0,34.0,30.31,SE,138,3.0,5.0,84,0.00,,,0.00,,2013-04-26 08:11:00,
2013-04-26 03:21:00,38.0,34.0,30.31,SE,138,3.0,5.0,84,0.00,,,0.00,,2013-04-26 08:21:00,
2013-04-26 03:32:00,38.0,34.0,30.30,SE,138,3.0,5.0,85,0.00,,,0.00,,2013-04-26 08:32:00,
2013-04-26 03:42:00,38.0,34.0,30.30,SE,138,3.0,5.0,85,0.00,,,0.00,,2013-04-26 08:42:00,
2013-04-26 03:52:00,39.0,35.0,30.30,SE,138,4.0,5.0,85,0.00,,,0.00,,2013-04-26 08:52:00,
2013-04-26 04:01:00,39.0,35.0,30.30,SSE,149,3.0,5.0,86,0.00,,,0.00,,2013-04-26 09:01:00,
2013-04-26 04:11:00,39.0,35.0,30.30,SSE,149,3.0,5.0,86,0.00,,,0.00,,2013-04-26 09:11:00,
2013-04-26 04:21:00,38.0,34.0,30.30,SSE,149,3.0,5.0,87,0.00,,,0.00,,2013-04-26 09:21:00,
2013-04-26 04:33:00,38.0,34.0,30.30,SSE,155,3.0,6.0,87,0.00,,,0.00,,2013-04-26 09:33:00,
2013-04-26 04:42:00,38.0,34.0,30.30,SSE,155,3.0,6.0,87,0.00,,,0.00,,2013-04-26 09:42:00,
2013-04-26 04:53:00,38.0,34.0,30.30,SSE,154,3.0,6.0,86,0.00,,,0.00,,2013-04-26 09:53:00,
2013-04-26 05:03:00,38.0,34.0,30.29,SSE,153,4.0,8.0,86,0.00,,,0.00,,2013-04-26 10:03:00,
2013-04-26 05:12:00,38.0,34.0,30.29,SSE,153,4.0,8.0,86,0.00,,,0.00,,2013-04-26 10:12:00,
2013-04-26 05:23:00,38.0,34.0,30.29,SSE,153,4.0,7.0,87,0.00,,,0.00,,2013-04-26 10:23:00,
2013-04-26 05:33:00,39.0,35.0,30.29,SSE,155,4.0,7.0,87,0.00,,,0.00,,2013-04-26 10:33:00,
2013-04-26 05:42:00,39.0,35.0,30.29,SSE,155,4.0,7.0,87,0.00,,,0.00,,2013-04-26 10:42:00,
2013-04-26 05:52:00,39.0,35.0,30.29,South,171,5.0,8.0,84,0.00,,,0.00,,2013-04-26 10:52:00,
2013-04-26 06:02:00,40.0,35.0,30.30,South,171,6.0,9.0,82,0.00,,,0.00,,2013-04-26 11:02:00,
2013-04-26 06:11:00,40.0,35.0,30.30,South,171,6.0,9.0,82,0.00,,,0.00,,2013-04-26 11:11:00,
2013-04-26 06:22:00,40.0,35.0,30.30,SSE,157,6.0,9.0,83,0.00,,,0.00,,2013-04-26 11:22:00,
2013-04-26 06:32:00,40.0,36.0,30.30,SSE,155,5.0,8.0,84,0.00,,,0.00,,2013-04-26 11:32:00,
2013-04-26 06:42:00,40.0,36.0,30.30,SSE,155,5.0,8.0,84,0.00,,,0.00,,2013-04-26 11:42:00,
2013-04-26 06:52:00,41.0,36.0,30.31,SSE,165,5.0,9.0,82,0.00,,,0.00,,2013-04-26 11:52:00,
2013-04-26 07:01:00,41.0,36.0,30.31,SSE,157,6.0,10.0,81,0.00,,,0.00,,2013-04-26 12:01:00,
2013-04-26 07:11:00,41.0,36.0,30.31,SSE,157,6.0,10.0,81,0.00,,,0.00,,2013-04-26 12:11:00,
2013-04-26 07:21:00,42.0,37.0,30.31,SSE,163,4.0,7.0,82,0.00,,,0.00,,2013-04-26 12:21:00,
2013-04-26 07:32:00,43.0,37.0,30.31,SSE,154,6.0,9.0,80,0.00,,,0.00,,2013-04-26 12:32:00,
2013-04-26 07:42:00,43.0,37.0,30.31,SSE,154,6.0,9.0,80,0.00,,,0.00,,2013-04-26 12:42:00,
2013-04-26 07:52:00,45.0,39.0,30.32,SSE,166,7.0,11.0,78,0.00,,,0.00,,2013-04-26 12:52:00,
2013-04-26 08:01:00,46.0,39.0,30.32,South,184,7.0,11.0,77,0.00,,,0.00,,2013-04-26 13:01:00,
2013-04-26 08:11:00,46.0,39.0,30.32,South,184,7.0,11.0,77,0.00,,,0.00,,2013-04-26 13:11:00,
2013-04-26 08:21:00,47.0,39.0,30.32,South,171,7.0,11.0,75,0.00,,,0.00,,2013-04-26 13:21:00,
2013-04-26 08:31:00,49.0,40.0,30.31,South,180,8.0,12.0,72,0.00,,,0.00,,2013-04-26 13:31:00,
2013-04-26 08:42:00,49.0,40.0,30.31,South,180,8.0,12.0,72,0.00,,,0.00,,2013-04-26 13:42:00,
2013-04-26 08:52:00,50.0,41.0,30.31,South,176,10.0,17.0,71,0.00,,,0.00,,2013-04-26 13:52:00,
2013-04-26 09:01:00,51.0,42.0,30.31,South,188,11.0,15.0,70,0.00,,,0.00,,2013-04-26 14:01:00,
2013-04-26 09:11:00,51.0,42.0,30.31,South,188,11.0,15.0,70,0.00,,,0.00,,2013-04-26 14:11:00,
2013-04-26 09:21:00,52.0,41.0,30.31,SSW,192,10.0,17.0,67,0.00,,,0.00,,2013-04-26 14:21:00,
2013-04-26 09:32:00,52.0,42.0,30.30,SW,216,9.0,18.0,69,0.00,,,0.00,,2013-04-26 14:32:00,
2013-04-26 09:41:00,52.0,42.0,30.30,SW,216,9.0,18.0,69,0.00,,,0.00,,2013-04-26 14:41:00,
2013-04-26 09:52:00,53.0,43.0,30.31,South,180,7.0,15.0,68,0.00,,,0.00,,2013-04-26 14:52:00,
2013-04-26 10:01:00,55.0,44.0,30.31,South,173,10.0,14.0,66,0.00,,,0.00,,2013-04-26 15:01:00,
2013-04-26 10:12:00,55.0,44.0,30.31,South,173,10.0,14.0,66,0.00,,,0.00,,2013-04-26 15:12:00,
2013-04-26 10:21:00,56.0,44.0,30.31,South,179,10.0,15.0,64,0.00,,,0.00,,2013-04-26 15:21:00,
2013-04-26 10:33:00,57.0,44.0,30.31,South,182,11.0,15.0,61,0.00,,,0.00,,2013-04-26 15:33:00,
2013-04-26 10:43:00,57.0,44.0,30.31,South,182,11.0,15.0,61,0.00,,,0.00,,2013-04-26 15:43:00,
2013-04-26 10:53:00,57.0,44.0,30.32,South,184,11.0,19.0,61,0.00,,,0.00,,2013-04-26 15:53:00,
2013-04-26 11:03:00,58.0,45.0,30.32,WSW,237,11.0,20.0,62,0.00,,,0.00,,2013-04-26 16:03:00,
2013-04-26 11:12:00,58.0,45.0,30.32,WSW,237,11.0,20.0,62,0.00,,,0.00,,2013-04-26 16:12:00,
2013-04-26 11:23:00,58.0,45.0,30.32,South,182,10.0,18.0,61,0.00,,,0.00,,2013-04-26 16:23:00,
2013-04-26 11:33:00,60.0,49.0,30.32,SW,216,10.0,20.0,66,0.00,,,0.00,,2013-04-26 16:33:00,
2013-04-26 11:42:00,60.0,49.0,30.32,SW,216,10.0,20.0,66,0.00,,,0.00,,2013-04-26 16:42:00,
2013-04-26 11:52:00,60.0,47.0,30.32,SSW,194,14.0,18.0,61,0.00,,,0.00,,2013-04-26 16:52:00,
2013-04-26 12:02:00,60.0,47.0,30.31,South,188,11.0,18.0,62,0.00,,,0.00,,2013-04-26 17:02:00,
2013-04-26 12:12:00,60.0,47.0,30.31,South,188,11.0,18.0,62,0.00,,,0.00,,2013-04-26 17:12:00,
2013-04-26 12:22:00,61.0,47.0,30.31,SW,223,12.0,20.0,61,0.00,,,0.00,,2013-04-26 17:22:00,
2013-04-26 12:31:00,62.0,48.0,30.30,SW,219,10.0,18.0,60,0.00,,,0.00,,2013-04-26 17:31:00,
2013-04-26 12:42:00,62.0,48.0,30.30,SW,219,10.0,18.0,60,0.00,,,0.00,,2013-04-26 17:42:00,
2013-04-26 12:52:00,62.0,47.0,30.30,SSW,197,12.0,18.0,59,0.00,,,0.00,,2013-04-26 17:52:00,
2013-04-26 13:02:00,63.0,49.0,30.30,SSW,209,8.0,20.0,61,0.00,,,0.00,,2013-04-26 18:02:00,
2013-04-26 13:12:00,63.0,49.0,30.30,SSW,209,8.0,20.0,61,0.00,,,0.00,,2013-04-26 18:12:00,
2013-04-26 13:22:00,63.0,49.0,30.29,SSW,208,10.0,17.0,61,0.00,,,0.00,,2013-04-26 18:22:00,
2013-04-26 13:33:00,64.0,50.0,30.28,South,181,8.0,17.0,61,0.00,,,0.00,,2013-04-26 18:33:00,
2013-04-26 13:42:00,64.0,50.0,30.28,South,181,8.0,17.0,61,0.00,,,0.00,,2013-04-26 18:42:00,
2013-04-26 13:52:00,64.0,49.0,30.28,SSW,203,9.0,16.0,58,0.00,,,0.00,,2013-04-26 18:52:00,
2013-04-26 14:01:00,64.0,50.0,30.28,SW,234,9.0,16.0,61,0.00,,,0.00,,2013-04-26 19:01:00,
2013-04-26 14:12:00,64.0,50.0,30.28,SW,234,9.0,16.0,61,0.00,,,0.00,,2013-04-26 19:12:00,
2013-04-26 14:22:00,65.0,50.0,30.27,SSW,199,7.0,14.0,59,0.00,,,0.00,,2013-04-26 19:22:00,
2013-04-26 14:32:00,65.0,50.0,30.27,SSW,199,7.0,14.0,59,0.00,,,0.00,,2013-04-26 19:32:00,
2013-04-26 14:41:00,65.0,50.0,30.27,SSW,199,7.0,14.0,59,0.00,,,0.00,,2013-04-26 19:41:00,
2013-04-26 14:52:00,64.0,49.0,30.27,SSW,202,9.0,14.0,58,0.00,,,0.00,,2013-04-26 19:52:00,
2013-04-26 15:02:00,65.0,51.0,30.26,SW,217,8.0,12.0,60,0.00,,,0.00,,2013-04-26 20:02:00,
2013-04-26 15:11:00,65.0,51.0,30.26,SW,217,8.0,12.0,60,0.00,,,0.00,,2013-04-26 20:11:00,
2013-04-26 15:21:00,64.0,48.0,30.26,SW,234,11.0,18.0,57,0.00,,,0.00,,2013-04-26 20:21:00,
2013-04-26 15:32:00,65.0,51.0,30.26,SW,235,9.0,17.0,60,0.00,,,0.00,,2013-04-26 20:32:00,
2013-04-26 15:42:00,65.0,51.0,30.26,SW,235,9.0,17.0,60,0.00,,,0.00,,2013-04-26 20:42:00,
2013-04-26 15:52:00,65.0,51.0,30.25,SSW,198,7.0,15.0,61,0.00,,,0.00,,2013-04-26 20:52:00,
2013-04-26 16:01:00,65.0,51.0,30.25,WSW,244,8.0,14.0,61,0.00,,,0.00,,2013-04-26 21:01:00,
2013-04-26 16:11:00,65.0,51.0,30.25,WSW,244,8.0,14.0,61,0.00,,,0.00,,2013-04-26 21:11:00,
2013-04-26 16:22:00,64.0,49.0,30.25,SSW,199,6.0,13.0,59,0.00,,,0.00,,2013-04-26 21:22:00,
2013-04-26 16:33:00,65.0,51.0,30.24,SSW,204,9.0,13.0,60,0.00,,,0.00,,2013-04-26 21:33:00,
2013-04-26 16:42:00,65.0,51.0,30.24,SSW,204,9.0,13.0,60,0.00,,,0.00,,2013-04-26 21:42:00,
2013-04-26 16:52:00,64.0,48.0,30.24,SW,233,7.0,14.0,57,0.00,,,0.00,,2013-04-26 21:52:00,
2013-04-26 17:02:00,64.0,48.0,30.24,SW,236,9.0,14.0,56,0.00,,,0.00,,2013-04-26 22:02:00,
2013-04-26 17:12:00,64.0,48.0,30.24,SW,236,9.0,14.0,56,0.00,,,0.00,,2013-04-26 22:12:00,
2013-04-26 17:23:00,64.0,48.0,30.24,SSW,199,7.0,15.0,57,0.00,,,0.00,,2013-04-26 22:23:00,
2013-04-26 17:33:00,63.0,48.0,30.24,SSW,205,8.0,15.0,57,0.00,,,0.00,,2013-04-26 22:33:00,
2013-04-26 17:42:00,63.0,48.0,30.24,SSW,205,8.0,15.0,57,0.00,,,0.00,,2013-04-26 22:42:00,
2013-04-26 17:52:00,63.0,48.0,30.24,SSW,198,10.0,15.0,59,0.00,,,0.00,,2013-04-26 22:52:00,
2013-04-26 18:02:00,63.0,49.0,30.24,SSW,202,8.0,13.0,61,0.00,,,0.00,,2013-04-26 23:02:00,
2013-04-26 18:11:00,63.0,49.0,30.24,SSW,202,8.0,13.0,61,0.00,,,0.00,,2013-04-26 23:11:00,
2013-04-26 18:21:00,62.0,49.0,30.24,SSW,209,7.0,14.0,63,0.00,,,0.00,,2013-04-26 23:21:00,
2013-04-26 18:32:00,62.0,49.0,30.24,SSW,213,9.0,15.0,63,0.00,,,0.00,,2013-04-26 23:32:00,
2013-04-26 18:42:00,62.0,49.0,30.24,SSW,213,9.0,15.0,63,0.00,,,0.00,,2013-04-26 23:42:00,
2013-04-26 18:52:00,61.0,48.0,30.25,SSW,211,10.0,15.0,62,0.00,,,0.00,,2013-04-26 23:52:00,
2013-04-26 19:01:00,60.0,47.0,30.25,SW,215,9.0,14.0,61,0.00,,,0.00,,2013-04-27 00:01:00,
2013-04-26 19:11:00,60.0,47.0,30.25,SW,215,9.0,14.0,61,0.00,,,0.00,,2013-04-27 00:11:00,
2013-04-26 19:21:00,60.0,47.0,30.26,SW,219,7.0,13.0,63,0.00,,,0.00,,2013-04-27 00:21:00,
2013-04-26 19:32:00,60.0,48.0,30.26,SW,231,7.0,11.0,65,0.00,,,0.00,,2013-04-27 00:32:00,
2013-04-26 19:42:00,60.0,48.0,30.26,SW,231,7.0,11.0,65,0.00,,,0.00,,2013-04-27 00:42:00,
2013-04-26 19:51:00,60.0,49.0,30.25,SSW,212,5.0,9.0,67,0.00,,,0.00,,2013-04-27 00:51:00,
2013-04-26 20:01:00,59.0,48.0,30.26,SSW,205,4.0,9.0,68,0.00,,,0.00,,2013-04-27 01:01:00,
2013-04-26 20:12:00,59.0,48.0,30.26,SSW,205,4.0,9.0,68,0.00,,,0.00,,2013-04-27 01:12:00,
2013-04-26 20:21:00,58.0,49.0,30.26,SSW,213,4.0,7.0,71,0.00,,,0.00,,2013-04-27 01:21:00,
2013-04-26 20:32:00,56.0,48.0,30.26,SSW,210,3.0,6.0,74,0.00,,,0.00,,2013-04-27 01:32:00,
2013-04-26 20:42:00,56.0,48.0,30.26,SSW,210,3.0,6.0,74,0.00,,,0.00,,2013-04-27 01:42:00,
2013-04-26 20:52:00,56.0,49.0,30.26,SSW,198,3.0,7.0,76,0.00,,,0.00,,2013-04-27 01:52:00,
2013-04-26 21:01:00,55.0,48.0,30.27,SSW,209,2.0,7.0,77,0.00,,,0.00,,2013-04-27 02:01:00,
2013-04-26 21:11:00,55.0,48.0,30.27,SSW,209,2.0,7.0,77,0.00,,,0.00,,2013-04-27 02:11:00,
2013-04-26 21:22:00,54.0,48.0,30.27,SSW,207,2.0,4.0,80,0.00,,,0.00,,2013-04-27 02:22:00,
2013-04-26 21:32:00,53.0,47.0,30.26,SSW,200,2.0,6.0,81,0.00,,,0.00,,2013-04-27 02:32:00,
2013-04-26 21:42:00,53.0,47.0,30.26,SSW,200,2.0,6.0,81,0.00,,,0.00,,2013-04-27 02:42:00,
2013-04-26 21:52:00,52.0,47.0,30.27,SSW,200,2.0,4.0,84,0.00,,,0.00,,2013-04-27 02:52:00,
2013-04-26 22:02:00,51.0,47.0,30.27,SSW,200,1.0,3.0,86,0.00,,,0.00,,2013-04-27 03:02:00,
2013-04-26 22:11:00,51.0,47.0,30.27,SSW,200,1.0,3.0,86,0.00,,,0.00,,2013-04-27 03:11:00,
2013-04-26 22:22:00,51.0,47.0,30.27,SSW,205,2.0,5.0,87,0.00,,,0.00,,2013-04-27 03:22:00,
2013-04-26 22:33:00,51.0,47.0,30.28,SSW,205,3.0,5.0,86,0.00,,,0.00,,2013-04-27 03:33:00,
2013-04-26 22:43:00,51.0,47.0,30.28,SSW,205,3.0,5.0,86,0.00,,,0.00,,2013-04-27 03:43:00,
2013-04-26 22:53:00,52.0,47.0,30.28,SSW,200,4.0,7.0,84,0.00,,,0.00,,2013-04-27 03:53:00,
2013-04-26 23:03:00,51.0,47.0,30.28,SSW,201,2.0,5.0,85,0.00,,,0.00,,2013-04-27 04:03:00,
2013-04-26 23:12:00,51.0,47.0,30.28,SSW,201,2.0,5.0,85,0.00,,,0.00,,2013-04-27 04:12:00,
2013-04-26 23:22:00,50.0,46.0,30.28,SSW,208,3.0,6.0,87,0.00,,,0.00,,2013-04-27 04:22:00,
2013-04-26 23:33:00,50.0,46.0,30.28,SSW,213,2.0,7.0,87,0.00,,,0.00,,2013-04-27 04:33:00,
2013-04-26 23:43:00,50.0,46.0,30.28,SSW,213,2.0,7.0,87,0.00,,,0.00,,2013-04-27 04:43:00,
2013-04-26 23:52:00,50.0,46.0,30.29,SW,227,3.0,7.0,87,0.00,,,0.00,,2013-04-27 04:52:00,